Погода в Чердыни

Погода в Чердыни : погода сейчас, прогноз погоды и архив. Всё, что Вы хотите узнать о погоде в Чердыни!

Хотите узнать прогноз погоды в Чердыни? Тогда Вам сюда: Погода в Чердыни

Поиск расширенной информации на нашем сайте:

Другие новости

Новости СМИ2

Главная страница сайта

Новости сайта

02.10.2013

Напоминаем, что на нашем новом сайте вы можете получить высокодетализированные прогнозы погоды по пунктам России, СНГ и мира (включающие важные для авиации метеовеличины, такие как направление и скорость ветра, видимость, явления погоды, количество и форма облачности, нижняя и верхняя граница облачности), а также ознакомиться с разнообразными материалами по авиационной метеорологии и подборкой полезных ссылок на эту тему.

Сайт Метеоцентр.Азия посвящён разработке технологий оптимизации авиаметеорологического обслуживания, включая проектирование и перспективное создание нескольких автоматизированных авиаметеорологических систем:
- система выпуска высокодетальных прогностических карт явлений погоды для нижнего воздушного пространства по России и ближнему зарубежью;
- система верификации прогнозов TAF (выпускаемых синоптиками официальных АМСГ РФ и ближнего зарубежья) и AUTOTAF (выпускаемых сайтом Метеоцентр.Азия) - выявление ошибок, онлайн-сопоставление с фактической погодой METAR, автоматическое внесение коррективов в прогнозы при резком отклонении фактической погоды от прогноза, подсчёт оправдываемости прогнозов по элементам и в целом;
- система обработки, анализа и отображения авиаметеорологической информации для применения провайдерами метеорологической информации.


Погода в Чердыни - сегодня

Время (UTC), дата Ветер
(°,м/с) 
Видим.   Явления Облачность Т
(°С)
Тd
(°С)
f(%) Тe
(°С)
Pmin
(гПа)
dP
(гПа)
Po
(мм)
O2
(г/м3)
Тmin Tmax R s Состояние
почвы
06 21.01.17 250 (З) 6{11}  4000 м  слаб. снег  10/8 2000 м средняя, верхняя 
[As op|Ci]
-8.7 -9.6 93 -14  983.2  1.6  718  300  -8.7         
09 21.01.17 250 (З) 6{10}  2000 м  снег  10/10 300 м 
[Frnb|Ns]
-8.8 -9.7 93 -14  984.8  1.5  719  300           
12 21.01.17 250 (З) 5{11}  2000 м  снег  10/8 300 м средняя 
[As op]
-9.8 -10.7 93 -14  986.8  1.9  721  302           
15 21.01.17 250 (З) 6{11}  4000 м  слаб. снег  10/10 2000 м 
[Ns]
-11.3 -12.4 92 -17  988.5  1.5  722  304    -6.9     
18 21.01.17 240 (ЮЗ) 4000 м  слаб. снег  10/8 2000 м средняя, верхняя 
[As op|Cs]
-12.4 -13.6 91 -17  989.7  722  306           
21 21.01.17 210 (ЮЗ) 4000 м  слаб. ливневой снег  10/6 600 м кучево-дожд., средняя 
[Cb cap|As op]
-12.7 -14 90 -17  989.7  722  306           
00 22.01.17 180 (Ю) 4000 м  слаб. ливневой снег  10/10 600 м кучево-дожд. 
[Cb cap]
-13.2 -14.5 90 -18  989.5  -0.3  722  307           
03 22.01.17 160 (Ю) 4000 м  слаб. снег{ливн. осадки}  10/10 300 м 
[Frnb|Ns]
-13.3 -14.6 90 -15  988.9  -0.5  722  307  -13.6    0.4  78  равномерный
сухой снег
100% 
06 22.01.17 190 (Ю) 10 км  слаб. снег{ливн. осадки}  10/8 300 м средняя 
[As op]
-12.1 -13.2 91 -16  988.7  0.1  722  305  -13.8         
09 22.01.17 220 (ЮЗ) 10 км  слаб. снег  10/6 300 м средняя 
[Sc|As op]
-9.3 -10.2 93 -13  987.7  -0.7  721  302           
12 22.01.17 230 (ЮЗ) 4000 м  слаб. ливневой снег  10/9 300 м кучево-дожд., средняя 
[Cb cap|As op]
-7.9 -8.6 95 -12  987.6  0.1  721  300           
15 22.01.17 240 (ЮЗ) 2000 м  снег{ливн. осадки}  10/10 300 м 
[Ns]
-7.9 -8.6 95 -12  987.9  0.3  722  300    -7.8     
18 22.01.17 300 (СЗ) 10 км  слаб. снег{ливн. осадки}  10/10 2000 м 
[Ns]
-8.6 -9.5 93 -12  989.7  1.7  723  302           
21 22.01.17 300 (СЗ) 20000 м  слаб. ливневой снег  10/8 600 м кучево-дожд., средняя 
[Cb cap|Ac As]
-10.5 -11.6 92 -14  992.8  2.8  725  305           
00 23.01.17 290 (З) 4000 м  слаб. ливневой снег  10/9 600 м кучево-дожд., средняя 
[Cb cap|Ac As]
-11 -12.3 90 -15  994.5  1.5  726  306           
03 23.01.17 240 (ЮЗ) 10 км  слаб. снег{ливн. осадки}  10/10 300 м 
[Frnb|Ns]
-12.4 -13.6 91 -16  995.4  0.8  727  308  -12.5    0.6  80  равномерный
сухой снег
100% 
06 23.01.17 210 (ЮЗ) 4000 м  ливневой снег  10/10 300 м кучево-дожд. 
[Cb cap]
-11.3 -12.5 91 -16  994.3  -1  726  306           
09 23.01.17 240 (ЮЗ) 4000 м  снег{ливн. осадки}  10/6 300 м средняя 
[Sc|As op]
-9.5 -10.6 92 -15  993.6  -0.5  726  304           
12 23.01.17 240 (ЮЗ) 6{10}  10 км  слаб. ливневой снег  10/8 300 м кучево-дожд., верхняя 
[Cb cap|Cs]
-9.4 -10.4 92 -15  993.8  0.2  726  304           
15 23.01.17 250 (З) 5{11}  2000 м  ливневой снег  10/10 600 м кучево-дожд. 
[Cb cap]
-8.8 -9.7 93 -13  994.6  0.9  726  303    -8.8     
18 23.01.17 250 (З) 2000 м  снег{ливн. осадки}  10/10 300 м 
[Ns]
-9.2 -10.1 93 -13  995.3  0.6  727  304           
21 23.01.17 290 (З) 4000 м  слаб. ливневой снег  10/10 600 м кучево-дожд. 
[Cb cap]
-11.2 -12.3 92 -13  997.4  1.8  728  307           
00 24.01.17 270 (З) 4000 м  слаб. снег{ливн. осадки}  8/8 2000 м средняя 
[As op]
-13.5 -14.9 89 -16  999.1  1.5  729  310           
03 24.01.17 330 (СЗ) 20000 м  {снег}  4/3 2000 м средняя, верхняя 
[As op|Ci fib]
-17.2 -18.9 87 -20  1001.8  2.2  731  316  -17.2    83  равномерный
сухой снег
100% 
06 24.01.17 320 (СЗ) 20000 м  {снег}  ясно 
-19.3 -21.3 84 -22  1004.6  2.4  733  319  -19.6         
Время (UTC), дата Ветер
(°,м/с) 
Видим.   Явления Облачность Т
(°С)
Тd
(°С)
f(%) Тe
(°С)
Pmin
(гПа)
dP
(гПа)
Po
(мм)
O2
(г/м3)
Тmin Tmax R s Состояние
почвы

Для получения пояснительной информации подведите курсор к названию столбца.

ПОГОДА в Чердыни - архив

Всё, что Вы хотите узнать о погоде в Чердыни - удобно и подробно!

Выберите нужную дату (начиная с 1 января 2015* года) и нажмите кнопку "Найти".
Будут отображены архивные сводки погоды по пункту Чердынь, начиная с указанной даты.


Отображать данные в формате CSV (для использования в таблицах Excel)


Внимание! Наш архив погоды предназначен исключительно для личного некоммерческого использования в познавательных целях. Если Вам необходимы официальные справки о состоянии погоды (для производственных, юридических, коммерческих и т.п. целей), обращайтесь в органы Росгидромета.

*Примечание: данная дата относится к архиву по метеостанциям СССР (Россия, СНГ, Балтия).
Архив по метеостанциям Зарубежной Европы и Азии (кроме Китая) хранится 10 дней, по другим регионам земного шара (Китай, Африка, Америка, Австралия, Океания) - 1 день.

Чердынь - район местоположения метеостанции


Название, широта, долгота, высота метеостанции:
Чердынь 60.4°ш. 56.5°д. 207 м над ур. моря [Российская Федерация]

Дополнительная информация

В oтличие oт бoльшинства пoгoдных сайтoв мы публикуем пoдрoбную метеoинфoрмацию в детальнoм прoфессиoнальнoм фoрмате.

Характеристики температуры и влажнoсти вoздуха измеряются на высoте 2 м в тени вдали oт зданий и деревьев.
Скoрoсть ветра измеряется на высoте 10 м (на урoвне рoста челoвека скoрoсть ветра ниже в 1.5-2 раза). Если метеoстанция нахoдится в гoрoде или в лесу, тo скoрoсть ветра занижена на 2-4 м/с пo сравнению с oткрытым местoм. Скoрoсть ветра над акватoриями крупных рек и oзёр, а также на вершинах хoлмoв на 2-5 м/с выше, чем в oбычных услoвиях.
Атмoсфернoе давление в разных тoчках местнoсти мoжет значительнo oтличаться oт давления на метеoстанции, в зависимoсти oт услoвий рельефа (при пoдъёме на 10 м давление пoнижается примернo на 1 мм рт.ст.).